Location: Ergnies
(50.0854°N, 2.0375°E)
Time: 20:41:17
(UTC+00:00)

Cosmos 864 Rocket - Pass Details

Date: 14 January 2026
Orbit: 953 x 990 km, 82.9° (Epoch: 13 February)

Event Time Altitude Azimuth Distance (km) Brightness Sun altitude
Rises 07:01:42 0° 192° (SSW) 3,620 7.7 -7.0°
Reaches altitude 10° 07:04:11 10° 194° (SSW) 2,676 7.0 -6.6°
Maximum altitude 07:10:18 76° 281° (W) 986 4.5 -5.7°
Drops below altitude 10° 07:16:28 10° 7° (N) 2,696 6.6 -4.9°
Sets 07:19:00 0° 9° (N) 3,649 7.3 -4.5°
